Jefferson, NC

5:22 PM EDT on July 17, 2019 (GMT -0400)
Ashe County

Weather History for KGEV - May, 2019

Change the Weather History Date:

Friday, May 31, 2019

  Actual Average Record
Temperature  
Mean Temperature 64 °F -  
Max Temperature 73 °F 73 °F 86 °F (2011)
Min Temperature 55 °F 52 °F 40 °F (1984)
Degree Days  
Heating Degree Days 1    
Growing Degree Days 14 (Base 50)    
Moisture  
Dew Point 55 °F    
Average Humidity 71    
Maximum Humidity 93    
Minimum Humidity 49    
Precipitation  
Precipitation 0.03 in - - ()
Sea Level Pressure  
Sea Level Pressure 29.97 in    
Wind  
Wind Speed 5 mph (WNW)    
Max Wind Speed 28 mph    
Max Gust Speed 36 mph    
Visibility 10 miles    
Events Rain    
Averages and records for this station are not official NWS values.
T = Trace of Precipitation, MM = Missing Value Source: NWS Daily Summary

Daily Weather History Graph

Daily Weather History Graph

Search for Another Location

Airport or City:

Astronomy

May. 31, 2019 Rise Set
Actual Time 6:09 AM EDT 8:37 PM EDT
Civil Twilight 5:39 AM EDT 9:07 PM EDT
Nautical Twilight 5:02 AM EDT 9:44 PM EDT
Astronomical Twilight 4:22 AM EDT 10:25 PM EDT
Moon 4:35 AM EDT (5/31) 5:51 PM EDT (5/31)
Length of Visible Light 15h 27m
Length of Day
14h 27m
Waning Crescent, 9% of the Moon is Illuminated
May 31
Waning Crescent
Jun 3
New
Jun 10
First Quarter
Jun 17
Full
Jun 25
Last Quarter

Hourly Weather History & Observations

Time (EDT) Temp. Dew Point Humidity Pressure Visibility Wind Dir Wind Speed Gust Speed Precip Events Conditions
12:05 AM 67.1 °F 56.3 °F 68% 29.97 in 10.0 mi Calm Calm - N/A   Clear
12:25 AM 66.6 °F 56.3 °F 69% 29.97 in 10.0 mi SW 3.5 mph - N/A   Clear
12:45 AM 65.7 °F 56.3 °F 72% 29.97 in 10.0 mi North 3.5 mph - N/A   Scattered Clouds
1:05 AM 66.4 °F 56.5 °F 70% 29.97 in 10.0 mi Calm Calm - N/A   Scattered Clouds
1:25 AM 64.8 °F 56.5 °F 74% 29.97 in 10.0 mi Calm Calm - N/A   Mostly Cloudy
1:45 AM 66.0 °F 56.7 °F 72% 29.96 in 10.0 mi Calm Calm - N/A   Mostly Cloudy
2:05 AM 64.8 °F 57.2 °F 76% 29.96 in 10.0 mi Calm Calm - N/A   Overcast
2:25 AM 64.4 °F 58.3 °F 80% 29.98 in 10.0 mi WNW 6.9 mph - N/A Rain Rain
2:45 AM 62.8 °F 58.8 °F 87% 29.97 in 10.0 mi NE 3.5 mph - 0.02 in   Overcast
3:05 AM 61.5 °F 57.9 °F 88% 29.97 in 10.0 mi West 5.8 mph - N/A Rain Light Rain
3:25 AM 61.5 °F 57.4 °F 86% 29.96 in 10.0 mi Calm Calm - N/A Rain Rain
3:45 AM 60.4 °F 57.0 °F 88% 29.96 in 10.0 mi Calm Calm - N/A Rain Light Rain
4:05 AM 61.0 °F 57.2 °F 87% 29.97 in 10.0 mi WNW 3.5 mph - N/A Rain Light Rain
4:25 AM 59.7 °F 56.5 °F 89% 29.96 in 10.0 mi Calm Calm - N/A Rain Light Rain
4:45 AM 59.2 °F 57.0 °F 93% 29.97 in 10.0 mi West 4.6 mph - 0.01 in Rain Light Rain
5:05 AM 60.1 °F 56.1 °F 87% 29.96 in 10.0 mi West 5.8 mph - N/A   Overcast
5:25 AM 60.3 °F 55.2 °F 83% 29.96 in 10.0 mi WNW 6.9 mph - N/A Rain Rain
5:45 AM 61.3 °F 55.9 °F 82% 29.96 in 10.0 mi WNW 6.9 mph - N/A   Overcast
6:05 AM 60.3 °F 56.3 °F 87% 29.97 in 10.0 mi NNW 4.6 mph - N/A Rain Light Rain
6:25 AM 59.4 °F 56.8 °F 91% 29.97 in 10.0 mi NW 4.6 mph - N/A   Overcast
6:45 AM 61.7 °F 56.3 °F 82% 29.98 in 10.0 mi West 4.6 mph - N/A   Overcast
7:05 AM 60.1 °F 57.2 °F 90% 29.99 in 10.0 mi Calm Calm - N/A   Overcast
7:25 AM 61.3 °F 56.5 °F 84% 29.99 in 10.0 mi Calm Calm - N/A   Overcast
7:45 AM 60.4 °F 57.2 °F 89% 29.99 in 10.0 mi Calm Calm - N/A   Overcast
8:05 AM 60.8 °F 57.4 °F 88% 30.00 in 10.0 mi Calm Calm - N/A   Overcast
8:25 AM 61.2 °F 57.6 °F 88% 30.00 in 10.0 mi NNW 3.5 mph - N/A   Overcast
8:45 AM 63.3 °F 57.7 °F 82% 30.00 in 10.0 mi NW 8.1 mph - N/A   Scattered Clouds
9:05 AM 64.8 °F 57.9 °F 78% 30.01 in 10.0 mi Calm Calm - N/A   Clear
9:25 AM 66.4 °F 59.5 °F 79% 30.00 in 10.0 mi Calm Calm - N/A   Scattered Clouds
9:45 AM 66.7 °F 59.4 °F 77% 30.00 in 10.0 mi North 3.5 mph - N/A   Overcast
10:05 AM 66.9 °F 59.5 °F 77% 30.00 in 10.0 mi Calm Calm - N/A   Overcast
10:25 AM 67.1 °F 58.3 °F 73% 30.00 in 10.0 mi West 10.4 mph - N/A   Overcast
10:45 AM 69.8 °F 57.2 °F 64% 30.00 in 10.0 mi West 11.5 mph 17.3 mph N/A   Scattered Clouds
11:05 AM 69.1 °F 57.2 °F 66% 30.00 in 10.0 mi West 11.5 mph 16.1 mph N/A   Mostly Cloudy
11:25 AM 70.2 °F 56.7 °F 62% 30.00 in 10.0 mi West 8.1 mph - N/A   Mostly Cloudy
11:45 AM 69.8 °F 56.5 °F 63% 30.00 in 10.0 mi WNW 10.4 mph - N/A   Mostly Cloudy
12:05 PM 69.8 °F 56.5 °F 63% 30.01 in 10.0 mi WNW 10.4 mph - N/A   Overcast
12:25 PM 69.1 °F 58.3 °F 68% 30.01 in 10.0 mi WNW 10.4 mph - N/A Rain Light Rain
12:45 PM 68.0 °F 56.8 °F 67% 30.01 in 10.0 mi West 8.1 mph - N/A   Mostly Cloudy
1:05 PM 68.9 °F 56.7 °F 65% 29.99 in 10.0 mi West 10.4 mph - N/A   Scattered Clouds
1:25 PM 70.3 °F 56.8 °F 62% 29.98 in 10.0 mi West 5.8 mph - N/A   Clear
1:45 PM 72.5 °F 55.8 °F 56% 29.96 in 10.0 mi West 13.8 mph 18.4 mph N/A   Clear
2:05 PM 72.9 °F 55.0 °F 53% 29.96 in 10.0 mi West 10.4 mph 20.7 mph N/A   Clear
2:25 PM 73.2 °F 53.2 °F 49% 29.95 in 10.0 mi West 15.0 mph 23.0 mph N/A   Scattered Clouds
2:45 PM 69.1 °F 55.4 °F 62% 29.95 in 10.0 mi West 12.7 mph 18.4 mph N/A   Mostly Cloudy
3:05 PM 71.1 °F 55.6 °F 58% 29.95 in 10.0 mi WNW 12.7 mph 20.7 mph N/A   Scattered Clouds
3:25 PM 70.9 °F 55.9 °F 59% 29.95 in 10.0 mi West 10.4 mph 16.1 mph N/A   Mostly Cloudy
3:45 PM 71.2 °F 53.1 °F 53% 29.93 in 10.0 mi West 15.0 mph 28.8 mph N/A   Overcast
4:05 PM 72.9 °F 54.3 °F 52% 29.91 in 10.0 mi West 8.1 mph 21.9 mph N/A   Mostly Cloudy
4:45 PM 71.2 °F 52.7 °F 52% 29.90 in 10.0 mi West 27.6 mph 35.7 mph N/A   Scattered Clouds
5:05 PM 66.7 °F 51.1 °F 57% 29.93 in 10.0 mi WNW 8.1 mph 19.6 mph N/A   Scattered Clouds
5:25 PM 66.7 °F 51.8 °F 59% 29.93 in 10.0 mi WSW 10.4 mph 19.6 mph N/A   Clear
5:45 PM 66.9 °F 51.8 °F 58% 29.93 in 10.0 mi West 16.1 mph 29.9 mph N/A   Clear
6:05 PM 67.5 °F 51.1 °F 56% 29.93 in 10.0 mi WNW 15.0 mph 25.3 mph N/A   Scattered Clouds
6:25 PM 67.1 °F 50.5 °F 55% 29.93 in 10.0 mi NW 15.0 mph 20.7 mph N/A   Scattered Clouds
6:45 PM 64.4 °F 50.4 °F 60% 29.93 in 10.0 mi NW 11.5 mph 25.3 mph N/A   Overcast
7:25 PM 61.0 °F 50.2 °F 68% 29.93 in 10.0 mi NW 12.7 mph 23.0 mph N/A   Scattered Clouds
7:45 PM 60.4 °F 49.6 °F 68% 29.93 in 10.0 mi NW 17.3 mph 27.6 mph N/A   Scattered Clouds
8:05 PM 60.8 °F 48.0 °F 63% 29.93 in 10.0 mi NW 8.1 mph 24.2 mph N/A   Mostly Cloudy
8:25 PM 60.4 °F 48.2 °F 64% 29.94 in 10.0 mi NW 10.4 mph 18.4 mph N/A   Overcast
8:45 PM 59.9 °F 48.6 °F 66% 29.95 in 10.0 mi WNW 6.9 mph 16.1 mph N/A   Scattered Clouds
9:05 PM 60.4 °F 47.5 °F 62% 29.95 in 10.0 mi West 10.4 mph - N/A   Clear
9:25 PM 60.3 °F 47.7 °F 63% 29.95 in 10.0 mi WNW 5.8 mph 19.6 mph N/A   Clear
9:45 PM 59.9 °F 47.3 °F 63% 29.96 in 10.0 mi WNW 3.5 mph - N/A   Clear
10:05 PM 59.5 °F 47.1 °F 63% 29.96 in 10.0 mi WNW 6.9 mph - N/A   Clear
10:25 PM 58.5 °F 48.6 °F 70% 29.97 in 10.0 mi NW 3.5 mph - N/A   Clear
10:45 PM 57.4 °F 49.5 °F 75% 29.97 in 10.0 mi NW 9.2 mph - N/A   Clear
11:05 PM 57.2 °F 49.5 °F 75% 29.98 in 10.0 mi NNW 5.8 mph - N/A   Clear
11:25 PM 55.9 °F 50.0 °F 80% 29.98 in 10.0 mi NW 8.1 mph - N/A   Clear
11:45 PM 56.7 °F 49.3 °F 76% 29.98 in 10.0 mi WNW 6.9 mph - N/A   Clear